| time (UTC) | temp F | wind direction | speed MPH | gust MPH | rain 1hr in | rain 24hr in | rain mn in | humidity % | barometer mb |
| 20260504100248 | 55 | 162 | 8.0 | 8.0 | 0.09 | 0.00 | 0.46 | 82 | 1011.2 |
| 20260504081747 | 55 | 306 | 8.0 | 8.0 | 0.03 | 0.00 | 0.25 | 77 | 1011.9 |
| 20260504081248 | 56 | 299 | 9.0 | 11.0 | 0.03 | 0.00 | 0.23 | 75 | 1011.9 |
| 20260504080755 | 56 | 222 | 2.0 | 2.0 | 0.03 | 0.00 | 0.22 | 77 | 1011.9 |
| 20260504080247 | 56 | 219 | 4.0 | 5.0 | 0.03 | 0.00 | 0.21 | 77 | 1011.5 |
| 20260504070247 | 57 | 168 | 8.0 | 9.0 | 0.03 | 0.00 | 0.18 | 73 | 1011.5 |
| 20260504060248 | 56 | 287 | 3.0 | 3.0 | 0.02 | 0.00 | 0.15 | 72 | 1011.2 |
| 20260504050747 | 55 | 96 | 0.0 | 0.0 | 0.05 | 0.00 | 0.15 | 71 | 1010.8 |
| 20260504050247 | 54 | 108 | 5.0 | 5.0 | 0.04 | 0.00 | 0.15 | 76 | 1010.8 |
| 20260504045747 | 54 | 66 | 8.0 | 8.0 | 0.05 | 0.00 | 0.13 | 76 | 1011.2 |
| 20260504045248 | 54 | 150 | 3.0 | 3.0 | 0.05 | 0.00 | 0.13 | 75 | 1011.2 |
| 20260504044748 | 55 | 197 | 3.0 | 3.0 | 0.05 | 0.00 | 0.13 | 77 | 1011.2 |
| 20260504044250 | 55 | 208 | 9.0 | 9.0 | 0.05 | 0.00 | 0.13 | 72 | 1011.5 |
| 20260504043747 | 55 | 150 | 3.0 | 3.0 | 0.04 | 0.00 | 0.13 | 74 | 1011.2 |
| 20260504043247 | 55 | 234 | 4.0 | 5.0 | 0.03 | 0.00 | 0.12 | 74 | 1011.2 |
| 20260504042304 | 57 | 246 | 8.0 | 8.0 | 0.01 | 0.00 | 0.10 | 73 | 1010.8 |
| 20260504041749 | 58 | 254 | 7.0 | 7.0 | 0.01 | 0.00 | 0.09 | 69 | 1010.8 |
| 20260504041247 | 57 | 232 | 5.0 | 5.0 | 0.01 | 0.00 | 0.09 | 67 | 1010.2 |
| 20260504040748 | 57 | 174 | 4.0 | 4.0 | 0.01 | 0.00 | 0.09 | 71 | 1010.2 |
| 20260504040247 | 57 | 158 | 4.0 | 4.0 | 0.01 | 0.00 | 0.09 | 70 | 1009.5 |
| 20260504035747 | 57 | 180 | 2.0 | 2.0 | 0.00 | 0.00 | 0.09 | 71 | 1009.8 |
| 20260504035247 | 57 | 258 | 14.0 | 15.0 | 0.00 | 0.00 | 0.08 | 69 | 1009.8 |
| 20260504034748 | 58 | 180 | 9.0 | 10.0 | 0.00 | 0.00 | 0.08 | 68 | 1010.2 |
| 20260504034247 | 59 | 208 | 9.0 | 10.0 | 0.00 | 0.00 | 0.08 | 62 | 1010.2 |
| 20260504033748 | 59 | 176 | 17.0 | 19.0 | 0.00 | 0.00 | 0.08 | 60 | 1010.2 |
| 20260504033248 | 59 | 217 | 13.0 | 16.0 | 0.00 | 0.00 | 0.08 | 63 | 1010.2 |
| 20260504032747 | 59 | 246 | 15.0 | 17.0 | 0.00 | 0.00 | 0.08 | 63 | 1010.2 |
| 20260504032248 | 59 | 246 | 15.0 | 17.0 | 0.00 | 0.00 | 0.08 | 63 | 1010.2 |
| 20260504031747 | 58 | 246 | 10.0 | 12.0 | 0.00 | 0.00 | 0.08 | 63 | 1009.8 |
| 20260504031247 | 58 | 246 | 10.0 | 12.0 | 0.00 | 0.00 | 0.08 | 63 | 1009.8 |
| 20260504030748 | 58 | 246 | 27.0 | 36.0 | 0.00 | 0.00 | 0.08 | 64 | 1009.8 |
| 20260504030248 | 58 | 246 | 27.0 | 36.0 | 0.00 | 0.00 | 0.08 | 64 | 1009.5 |
| 20260504025747 | 58 | 226 | 11.0 | 14.0 | 0.00 | 0.00 | 0.08 | 65 | 1009.8 |
| 20260504025248 | 58 | 204 | 8.0 | 8.0 | 0.00 | 0.00 | 0.08 | 63 | 1009.5 |
| 20260504024748 | 58 | 266 | 18.0 | 21.0 | 0.00 | 0.00 | 0.08 | 62 | 1009.5 |
| 20260504024247 | 58 | 254 | 21.0 | 26.0 | 0.00 | 0.00 | 0.08 | 61 | 1009.5 |
| 20260504023747 | 58 | 270 | 14.0 | 19.0 | 0.00 | 0.00 | 0.08 | 62 | 1009.5 |
| 20260504023247 | 58 | 244 | 19.0 | 20.0 | 0.01 | 0.00 | 0.08 | 60 | 1009.5 |
| 20260504022747 | 58 | 246 | 14.0 | 15.0 | 0.01 | 0.00 | 0.08 | 61 | 1009.8 |
| 20260504022248 | 57 | 252 | 14.0 | 18.0 | 0.01 | 0.00 | 0.08 | 62 | 1009.8 |
| 20260504021747 | 57 | 96 | 2.0 | 2.0 | 0.01 | 0.00 | 0.08 | 64 | 1009.8 |
| 20260504021247 | 57 | 186 | 7.0 | 7.0 | 0.01 | 0.00 | 0.08 | 64 | 1009.8 |
| 20260504020748 | 57 | 78 | 1.0 | 1.0 | 0.01 | 0.00 | 0.08 | 69 | 1009.8 |
| 20260504020247 | 56 | 138 | 7.0 | 7.0 | 0.01 | 0.00 | 0.08 | 67 | 1009.8 |
| 20260504015748 | 56 | 42 | 5.0 | 6.0 | 0.01 | 0.00 | 0.08 | 73 | 1009.5 |
| 20260504015248 | 56 | 48 | 0.0 | 0.0 | 0.01 | 0.00 | 0.08 | 72 | 1010.2 |
| 20260504014749 | 56 | 203 | 5.0 | 5.0 | 0.03 | 0.00 | 0.08 | 71 | 1010.2 |
| 20260504014248 | 56 | 188 | 2.0 | 2.0 | 0.05 | 0.00 | 0.08 | 72 | 1010.5 |
| 20260504013748 | 56 | 266 | 0.0 | 0.0 | 0.06 | 0.00 | 0.08 | 73 | 1010.2 |
| 20260504013248 | 56 | 252 | 3.0 | 3.0 | 0.05 | 0.00 | 0.08 | 72 | 1010.2 |
| 20260504012748 | 56 | 216 | 6.0 | 7.0 | 0.05 | 0.00 | 0.07 | 70 | 1010.2 |
| 20260504012248 | 56 | 182 | 3.0 | 3.0 | 0.05 | 0.00 | 0.07 | 70 | 1010.2 |
| 20260504011747 | 57 | 160 | 2.0 | 2.0 | 0.05 | 0.00 | 0.07 | 67 | 1010.2 |
| 20260504011249 | 56 | 220 | 5.0 | 5.0 | 0.05 | 0.00 | 0.07 | 66 | 1010.2 |
| 20260504010747 | 56 | 248 | 3.0 | 3.0 | 0.05 | 0.00 | 0.07 | 69 | 1010.2 |
| 20260504010247 | 56 | 246 | 4.0 | 4.0 | 0.05 | 0.00 | 0.07 | 71 | 1010.2 |
| 20260504005748 | 56 | 174 | 3.0 | 3.0 | 0.05 | 0.00 | 0.07 | 74 | 1010.2 |
| 20260504005247 | 56 | 207 | 2.0 | 2.0 | 0.05 | 0.00 | 0.07 | 71 | 1010.2 |
| 20260504004747 | 57 | 246 | 1.0 | 1.0 | 0.03 | 0.00 | 0.07 | 73 | 1010.2 |
| 20260504004247 | 57 | 282 | 9.0 | 10.0 | 0.01 | 0.00 | 0.06 | 70 | 1010.8 |
| 20260504003748 | 60 | 282 | 10.0 | 11.0 | 0.00 | 0.00 | 0.02 | 62 | 1010.2 |
| 20260504003247 | 60 | 213 | 3.0 | 3.0 | 0.00 | 0.00 | 0.02 | 61 | 1010.2 |
| 20260504002748 | 60 | 219 | 5.0 | 5.0 | 0.00 | 0.00 | 0.02 | 61 | 1009.8 |
| 20260504002249 | 60 | 235 | 5.0 | 7.0 | 0.00 | 0.00 | 0.02 | 61 | 1010.2 |
| 20260504001747 | 59 | 142 | 3.0 | 3.0 | 0.00 | 0.00 | 0.02 | 63 | 1010.2 |
| 20260504001247 | 59 | 207 | 5.0 | 5.0 | 0.00 | 0.00 | 0.02 | 62 | 1010.2 |
| 20260504000747 | 60 | 182 | 0.0 | 0.0 | 0.00 | 0.00 | 0.02 | 62 | 1010.2 |
| 20260504000248 | 59 | 234 | 5.0 | 6.0 | 0.00 | 0.00 | 0.02 | 60 | 1010.2 |
| 20260503235747 | 59 | 258 | 5.0 | 5.0 | 0.00 | 0.00 | 0.02 | 62 | 1010.2 |
| 20260503235247 | 59 | 126 | 3.0 | 3.0 | 0.00 | 0.00 | 0.02 | 62 | 1010.2 |
| 20260503234747 | 60 | 240 | 4.0 | 5.0 | 0.00 | 0.00 | 0.02 | 61 | 1010.5 |
| 20260503234248 | 59 | 179 | 5.0 | 5.0 | 0.00 | 0.00 | 0.02 | 61 | 1010.5 |
| 20260503233748 | 59 | 132 | 3.0 | 3.0 | 0.00 | 0.00 | 0.02 | 62 | 1010.5 |
| 20260503233247 | 60 | 182 | 3.0 | 3.0 | 0.00 | 0.00 | 0.02 | 62 | 1010.2 |
| 20260503232747 | 60 | 258 | 2.0 | 2.0 | 0.00 | 0.00 | 0.02 | 63 | 1010.2 |
| 20260503232247 | 59 | 183 | 4.0 | 4.0 | 0.00 | 0.00 | 0.02 | 65 | 1010.5 |
| 20260503231747 | 60 | 306 | 0.0 | 0.0 | 0.00 | 0.00 | 0.02 | 65 | 1010.2 |
| 20260503231248 | 60 | 306 | 4.0 | 4.0 | 0.00 | 0.00 | 0.02 | 62 | 1010.5 |
| 20260503230747 | 59 | 292 | 4.0 | 4.0 | 0.00 | 0.00 | 0.02 | 63 | 1010.2 |
| 20260503225801 | 60 | 138 | 0.0 | 0.0 | 0.00 | 0.00 | 0.02 | 64 | 1010.5 |
| 20260503225247 | 60 | 312 | 6.0 | 6.0 | 0.01 | 0.00 | 0.02 | 60 | 1010.5 |
| 20260503224748 | 60 | 278 | 4.0 | 5.0 | 0.02 | 0.00 | 0.02 | 62 | 1010.2 |
| 20260503224247 | 60 | 210 | 5.0 | 5.0 | 0.02 | 0.00 | 0.02 | 62 | 1010.5 |
| 20260503223747 | 60 | 228 | 14.0 | 16.0 | 0.02 | 0.00 | 0.02 | 62 | 1010.5 |
| 20260503223248 | 60 | 207 | 11.0 | 14.0 | 0.02 | 0.00 | 0.02 | 62 | 1010.8 |
| 20260503222749 | 59 | 198 | 9.0 | 11.0 | 0.02 | 0.00 | 0.02 | 63 | 1010.8 |
| 20260503222247 | 59 | 211 | 11.0 | 11.0 | 0.02 | 0.00 | 0.02 | 65 | 1010.5 |
| 20260503221747 | 59 | 220 | 8.0 | 8.0 | 0.02 | 0.00 | 0.02 | 68 | 1010.8 |
| 20260503221249 | 59 | 210 | 5.0 | 7.0 | 0.02 | 0.00 | 0.02 | 66 | 1010.5 |
| 20260503220747 | 59 | 249 | 11.0 | 12.0 | 0.02 | 0.00 | 0.02 | 68 | 1010.5 |
| 20260503220247 | 59 | 234 | 10.0 | 11.0 | 0.02 | 0.00 | 0.02 | 68 | 1010.2 |
| 20260503215747 | 59 | 207 | 10.0 | 11.0 | 0.02 | 0.00 | 0.02 | 67 | 1010.2 |
| 20260503215247 | 59 | 192 | 5.0 | 5.0 | 0.01 | 0.00 | 0.02 | 69 | 1010.2 |
| 20260503214747 | 59 | 241 | 7.0 | 7.0 | 0.00 | 0.00 | 0.02 | 68 | 1010.2 |
| 20260503214247 | 60 | 228 | 11.0 | 13.0 | 0.00 | 0.00 | 0.00 | 63 | 1010.2 |
| 20260503213747 | 60 | 216 | 8.0 | 8.0 | 0.00 | 0.00 | 0.00 | 62 | 1010.2 |
| 20260503213248 | 60 | 230 | 7.0 | 8.0 | 0.00 | 0.00 | 0.00 | 62 | 1010.2 |
| 20260503212747 | 60 | 264 | 8.0 | 9.0 | 0.00 | 0.00 | 0.00 | 63 | 1010.5 |
| 20260503212248 | 60 | 246 | 5.0 | 6.0 | 0.00 | 0.00 | 0.00 | 62 | 1010.5 |
| 20260503211748 | 60 | 192 | 7.0 | 8.0 | 0.00 | 0.00 | 0.00 | 62 | 1010.5 |
| 20260503211247 | 60 | 181 | 7.0 | 8.0 | 0.00 | 0.00 | 0.00 | 62 | 1010.5 |
| 20260503210748 | 61 | 120 | 8.0 | 9.0 | 0.00 | 0.00 | 0.00 | 63 | 1010.8 |
| 20260503210247 | 61 | 211 | 19.0 | 22.0 | 0.00 | 0.00 | 0.00 | 61 | 1010.5 |
| 20260503205748 | 61 | 227 | 10.0 | 11.0 | 0.00 | 0.00 | 0.19 | 63 | 1010.5 |
| 20260503205247 | 60 | 246 | 12.0 | 15.0 | 0.00 | 0.00 | 0.19 | 63 | 1010.2 |
| 20260503204747 | 61 | 287 | 5.0 | 7.0 | 0.00 | 0.00 | 0.19 | 62 | 1010.2 |
| 20260503204248 | 61 | 234 | 11.0 | 11.0 | 0.00 | 0.00 | 0.19 | 63 | 1010.2 |
| 20260503203748 | 61 | 211 | 8.0 | 8.0 | 0.00 | 0.00 | 0.19 | 61 | 1010.2 |
| 20260503203248 | 61 | 242 | 12.0 | 14.0 | 0.00 | 0.00 | 0.19 | 59 | 1010.2 |
| 20260503202747 | 61 | 142 | 1.0 | 1.0 | 0.01 | 0.00 | 0.19 | 64 | 1010.2 |
| 20260503202248 | 61 | 238 | 8.0 | 9.0 | 0.01 | 0.00 | 0.19 | 64 | 1010.2 |
| 20260503201747 | 61 | 276 | 15.0 | 18.0 | 0.01 | 0.00 | 0.19 | 63 | 1010.2 |
| 20260503201247 | 61 | 239 | 9.0 | 9.0 | 0.01 | 0.00 | 0.19 | 62 | 1010.2 |
| 20260503200747 | 62 | 246 | 9.0 | 11.0 | 0.01 | 0.00 | 0.19 | 59 | 1010.2 |
| 20260503200248 | 61 | 270 | 6.0 | 7.0 | 0.01 | 0.00 | 0.19 | 62 | 1009.8 |
| 20260503195747 | 61 | 282 | 9.0 | 11.0 | 0.01 | 0.00 | 0.19 | 64 | 1009.8 |
| 20260503195248 | 62 | 342 | 3.0 | 4.0 | 0.01 | 0.00 | 0.19 | 62 | 1009.8 |
| 20260503194747 | 62 | 228 | 8.0 | 8.0 | 0.01 | 0.00 | 0.19 | 61 | 1009.8 |
| 20260503194247 | 62 | 40 | 3.0 | 3.0 | 0.01 | 0.00 | 0.19 | 57 | 1010.2 |
| 20260503193747 | 61 | 258 | 11.0 | 12.0 | 0.01 | 0.00 | 0.19 | 62 | 1009.8 |
| 20260503193248 | 61 | 318 | 9.0 | 9.0 | 0.01 | 0.00 | 0.19 | 66 | 1009.8 |
| 20260503192747 | 61 | 282 | 10.0 | 11.0 | 0.01 | 0.00 | 0.19 | 67 | 1009.5 |
| 20260503192247 | 62 | 264 | 8.0 | 8.0 | 0.04 | 0.00 | 0.18 | 65 | 1009.5 |
| 20260503191747 | 62 | 258 | 12.0 | 17.0 | 0.06 | 0.00 | 0.18 | 63 | 1009.1 |
| 20260503191248 | 62 | 288 | 9.0 | 11.0 | 0.07 | 0.00 | 0.18 | 61 | 1009.8 |
| 20260503190748 | 62 | 203 | 4.0 | 4.0 | 0.07 | 0.00 | 0.18 | 61 | 1009.8 |
| 20260503190248 | 62 | 318 | 12.0 | 14.0 | 0.07 | 0.00 | 0.18 | 63 | 1009.5 |
| 20260503185748 | 62 | 272 | 4.0 | 5.0 | 0.07 | 0.00 | 0.18 | 64 | 1009.5 |
| 20260503185247 | 62 | 259 | 11.0 | 11.0 | 0.07 | 0.00 | 0.18 | 63 | 1009.8 |
| 20260503184748 | 62 | 286 | 6.0 | 7.0 | 0.07 | 0.00 | 0.18 | 70 | 1009.8 |
| 20260503184248 | 62 | 252 | 7.0 | 8.0 | 0.08 | 0.00 | 0.18 | 68 | 1009.8 |
| 20260503183747 | 63 | 36 | 1.0 | 1.0 | 0.09 | 0.00 | 0.18 | 67 | 1009.1 |
| 20260503183249 | 62 | 282 | 4.0 | 4.0 | 0.10 | 0.00 | 0.18 | 70 | 1009.5 |
| 20260503182748 | 62 | 312 | 11.0 | 13.0 | 0.09 | 0.00 | 0.18 | 69 | 1009.5 |
| 20260503182249 | 62 | 215 | 2.0 | 2.0 | 0.06 | 0.00 | 0.17 | 76 | 1009.5 |
| 20260503181748 | 63 | 276 | 2.0 | 2.0 | 0.04 | 0.00 | 0.13 | 72 | 1009.1 |
| 20260503181247 | 62 | 330 | 5.0 | 7.0 | 0.04 | 0.00 | 0.11 | 72 | 1009.1 |
| 20260503180747 | 62 | 270 | 6.0 | 7.0 | 0.04 | 0.00 | 0.11 | 71 | 1008.8 |
| 20260503180248 | 62 | 354 | 10.0 | 12.0 | 0.04 | 0.00 | 0.11 | 74 | 1008.8 |
| 20260503175749 | 62 | 310 | 4.0 | 4.0 | 0.04 | 0.00 | 0.11 | 74 | 1008.5 |
| 20260503175247 | 62 | 318 | 5.0 | 6.0 | 0.04 | 0.00 | 0.11 | 75 | 1008.5 |
| 20260503174747 | 62 | 288 | 2.0 | 2.0 | 0.03 | 0.00 | 0.11 | 75 | 1008.5 |
| 20260503174247 | 62 | 271 | 9.0 | 11.0 | 0.02 | 0.00 | 0.11 | 73 | 1008.1 |
| 20260503173747 | 62 | 282 | 23.0 | 27.0 | 0.01 | 0.00 | 0.09 | 77 | 1007.5 |
| 20260503173248 | 62 | 306 | 9.0 | 10.0 | 0.00 | 0.00 | 0.08 | 78 | 1007.8 |
| 20260503172747 | 62 | 312 | 5.0 | 5.0 | 0.00 | 0.00 | 0.07 | 75 | 1007.5 |
| 20260503172248 | 63 | 282 | 4.0 | 4.0 | 0.00 | 0.00 | 0.07 | 74 | 1007.5 |
| 20260503171747 | 64 | 294 | 2.0 | 2.0 | 0.00 | 0.00 | 0.07 | 72 | 1007.1 |
| 20260503171248 | 64 | 355 | 12.0 | 13.0 | 0.00 | 0.00 | 0.07 | 69 | 1007.5 |
| 20260503170748 | 64 | 212 | 5.0 | 7.0 | 0.00 | 0.00 | 0.07 | 68 | 1007.8 |
| 20260503170247 | 64 | 255 | 4.0 | 5.0 | 0.00 | 0.00 | 0.07 | 65 | 1007.5 |
| 20260503150748 | 63 | 228 | 17.0 | 20.0 | 0.00 | 0.00 | 0.04 | 69 | 1007.1 |
| 20260503150249 | 63 | 242 | 9.0 | 9.0 | 0.00 | 0.00 | 0.04 | 69 | 1007.1 |
| 20260503140251 | 64 | 276 | 25.0 | 27.0 | 0.03 | 0.00 | 0.04 | 72 | 1006.4 |
| 20260503131247 | 64 | 288 | 11.0 | 12.0 | 0.01 | 0.00 | 0.03 | 75 | 1005.8 |
| 20260503130747 | 65 | 276 | 19.0 | 21.0 | 0.00 | 0.00 | 0.01 | 72 | 1005.8 |
| 20260503130248 | 67 | 276 | 23.0 | 27.0 | 0.00 | 0.00 | 0.01 | 71 | 1005.4 |
| 20260503110747 | 72 | 309 | 4.0 | 4.0 | 0.00 | 0.00 | 0.01 | 65 | 1005.4 |
| 20260503110247 | 72 | 351 | 2.0 | 2.0 | 0.00 | 0.00 | 0.01 | 64 | 1005.4 |